Time,TemperatureF,DewpointF,PressureIn,WindDirection,WindDirectionDegrees,WindSpeedMPH,WindSpeedGustMPH,Humidity,HourlyPrecipIn,Conditions,Clouds,dailyrainin,SoftwareType,DateUTC
2013-02-05 00:00:00,40.0,-99.9,-100.00,SW,229,3.0,-999.0,-999,-99.99,,,-99.99,,2013-02-05 08:00:00,
2013-02-05 01:00:00,38.0,-99.9,-100.00,West,275,2.0,-999.0,-999,-99.99,,,-99.99,,2013-02-05 09:00:00,
2013-02-05 02:00:00,39.0,-99.9,-100.00,SW,227,2.0,-999.0,-999,-99.99,,,-99.99,,2013-02-05 10:00:00,
2013-02-05 03:00:00,42.0,-99.9,-100.00,SSW,199,3.0,-999.0,-999,-99.99,,,-99.99,,2013-02-05 11:00:00,
2013-02-05 04:00:00,41.0,-99.9,-100.00,SSE,148,2.0,-999.0,-999,-99.99,,,-99.99,,2013-02-05 12:00:00,
2013-02-05 05:00:00,43.0,-99.9,-100.00,SW,214,5.0,-999.0,-999,-99.99,,,-99.99,,2013-02-05 13:00:00,
2013-02-05 06:00:00,41.0,-99.9,-100.00,WSW,246,3.0,-999.0,-999,-99.99,,,-99.99,,2013-02-05 14:00:00,
2013-02-05 07:00:00,37.0,-99.9,-100.00,South,179,3.0,-999.0,-999,-99.99,,,-99.99,,2013-02-05 15:00:00,
2013-02-05 08:00:00,37.0,-99.9,-100.00,ESE,118,2.0,-999.0,-999,-99.99,,,-99.99,,2013-02-05 16:00:00,
2013-02-05 08:52:00,37.0,-99.9,-100.00,ESE,118,2.0,-999.0,-999,-99.99,,,-99.99,,2013-02-05 16:52:00,
2013-02-05 09:00:00,39.0,-99.9,-100.00,North,353,3.0,-999.0,-999,-99.99,,,-99.99,,2013-02-05 17:00:00,
2013-02-05 10:00:00,43.0,-99.9,-100.00,WSW,242,8.0,-999.0,-999,-99.99,,,-99.99,,2013-02-05 18:00:00,
2013-02-05 11:00:00,44.0,-99.9,-100.00,WSW,239,14.0,-999.0,-999,-99.99,,,-99.99,,2013-02-05 19:00:00,
2013-02-05 12:00:00,43.0,-99.9,-100.00,WSW,241,14.0,-999.0,-999,-99.99,,,-99.99,,2013-02-05 20:00:00,
2013-02-05 13:00:00,41.0,-99.9,-100.00,SW,235,14.0,-999.0,-999,-99.99,,,-99.99,,2013-02-05 21:00:00,
2013-02-05 14:00:00,44.0,-99.9,-100.00,SW,233,16.0,-999.0,-999,-99.99,,,-99.99,,2013-02-05 22:00:00,
2013-02-05 15:00:00,44.0,-99.9,-100.00,WSW,247,15.0,-999.0,-999,-99.99,,,-99.99,,2013-02-05 23:00:00,
2013-02-05 16:00:00,43.0,-99.9,-100.00,WSW,243,10.0,-999.0,-999,-99.99,,,-99.99,,2013-02-06 00:00:00,
2013-02-05 17:00:00,41.0,-99.9,-100.00,SW,228,9.0,-999.0,-999,-99.99,,,-99.99,,2013-02-06 01:00:00,
2013-02-05 18:00:00,39.0,-99.9,-100.00,WSW,241,10.0,-999.0,-999,-99.99,,,-99.99,,2013-02-06 02:00:00,
2013-02-05 18:53:00,39.0,-99.9,-100.00,WSW,241,10.0,-999.0,-999,-99.99,,,-99.99,,2013-02-06 02:53:00,
2013-02-05 19:00:00,36.0,-99.9,-100.00,SSW,213,7.0,-999.0,-999,-99.99,,,-99.99,,2013-02-06 03:00:00,
2013-02-05 20:00:00,36.0,-99.9,-100.00,SSW,196,7.0,-999.0,-999,-99.99,,,-99.99,,2013-02-06 04:00:00,
2013-02-05 21:00:00,36.0,-99.9,-100.00,SSW,203,7.0,-999.0,-999,-99.99,,,-99.99,,2013-02-06 05:00:00,
2013-02-05 22:00:00,35.0,-99.9,-100.00,SW,229,10.0,-999.0,-999,-99.99,,,-99.99,,2013-02-06 06:00:00,
2013-02-05 23:00:00,34.0,-99.9,-100.00,SW,232,9.0,-999.0,-999,-99.99,,,-99.99,,2013-02-06 07:00:00,